Weather History for Pratica di Mare, Italy

Change the Weather History Date:

Wednesday, November 7, 2012

  Actual Average Record
Temperature  
Mean Temperature 58 °F -  
Max Temperature 64 °F 62 °F 72 °F (2013)
Min Temperature 51 °F 46 °F 37 °F (2002)
Degree Days  
Heating Degree Days 7    
Growing Degree Days 8 (Base 50)    
Moisture  
Dew Point 48 °F    
Average Humidity 69    
Maximum Humidity 88    
Minimum Humidity 42    
Precipitation  
Precipitation 0.04 in 0.15 in - ()
Sea Level Pressure  
Sea Level Pressure 30.15 in    
Wind  
Wind Speed 8 mph ()    
Max Wind Speed 15 mph    
Max Gust Speed 22 mph    
Visibility 8.3 miles    
Events Rain , Thunderstorm    
Averages and records for this station are not official NWS values.
T = Trace of Precipitation, MM = Missing Value Source: Averaged Metar Reports

Daily Weather History Graph

Daily Weather History Graph

Search for Another Location

Airport:

Trip Planner

Search our weather history database for the weather conditions in past years. The results will help you decide how hot, cold, wet, or windy it might be!

Date:

Astronomy

Nov. 07, 2012 Rise Set
Actual Time 6:49 AM CET 4:57 PM CET
Civil Twilight 6:20 AM CET 5:26 PM CET
Nautical Twilight 5:47 AM CET 5:59 PM CET
Astronomical Twilight 5:14 AM CET 6:32 PM CET
Moon No Moon Rise 1:02 PM CET (11/7)
Length of Visible Light 11h 06m
Length of Day
10h 07m
Last Quarter, 46% of the Moon is Illuminated
Nov 7
Last Quarter
Nov 13
New
Nov 20
First Quarter
Nov 28
Full
Dec 6
Last Quarter

Hourly Weather History & Observations

Time (CET) Temp. Dew Point Humidity Pressure Visibility Wind Dir Wind Speed Gust Speed Precip Events Conditions
12:55 AM 59.0 °F 51.8 °F 77% 30.04 in 6.2 mi East 9.2 mph - N/A   Scattered Clouds
1:00 AM 59 °F 52 °F 70% 30.06 in 9 mi East 9.2 mph - -   Partly Cloudy
1:55 AM 59.0 °F 51.8 °F 77% 30.04 in 6.2 mi East 6.9 mph - N/A   Scattered Clouds
2:55 AM 60.8 °F 50.0 °F 68% 30.06 in 6.2 mi WSW 13.8 mph - N/A   Partly Cloudy
3:55 AM 60.8 °F 51.8 °F 72% 30.06 in - WSW 9.2 mph - N/A   Clear
4:00 AM 60 °F 52 °F 68% 30.07 in 9 mi WSW 9.2 mph - -   Scattered Clouds
4:55 AM 55.4 °F 51.8 °F 88% 30.06 in - ENE 5.8 mph - N/A   Clear
5:55 AM 53.6 °F 50.0 °F 88% 30.06 in - NNE 6.9 mph - N/A   Clear
7:00 AM 54 °F 49 °F 79% 30.10 in 11 mi NNE 9.2 mph - -   Scattered Clouds
7:55 AM 55.4 °F 50.0 °F 82% 30.12 in 6.2 mi North 9.2 mph - N/A   Scattered Clouds
8:55 AM 57.2 °F 50.0 °F 77% 30.12 in 6.2 mi North 8.1 mph - N/A   Scattered Clouds
9:19 AM 59.0 °F 50.0 °F 72% 30.15 in 6.2 mi NNW 15.0 mph - N/A Thunderstorm Thunderstorm
9:25 AM 57.2 °F 48.2 °F 72% 30.15 in 6.2 mi North 15.0 mph - N/A Rain , Thunderstorm Light Thunderstorms and Rain
9:55 AM 57.2 °F 44.6 °F 63% 30.15 in 6.2 mi NE 8.1 mph 21.9 mph N/A Rain Light Rain
10:00 AM 58 °F 44 °F 49% 30.18 in 12 mi NE 8.1 mph - - Rain Light Rain
10:55 AM 59.0 °F 50.0 °F 72% 30.15 in 6.2 mi North 5.8 mph - N/A   Scattered Clouds
12:55 PM 64.4 °F 53.6 °F 68% 30.15 in 6.2 mi WNW 10.4 mph - N/A   Partly Cloudy
1:00 PM 65 °F 54 °F 58% 30.18 in 16 mi WNW 10.4 mph - -   Partly Cloudy
1:55 PM 64.4 °F 53.6 °F 68% 30.15 in 6.2 mi WNW 10.4 mph - N/A   Partly Cloudy
2:55 PM 64.4 °F 46.4 °F 52% 30.15 in 6.2 mi NW 9.2 mph - N/A   Partly Cloudy
3:55 PM 62.6 °F 46.4 °F 55% 30.18 in 6.2 mi NNW 6.9 mph - N/A   Partly Cloudy
4:00 PM 63 °F 46 °F 42% 30.20 in 16 mi NNW 6.9 mph - -   Scattered Clouds
5:55 PM 55.4 °F 46.4 °F 72% 30.21 in - NNW 5.8 mph - N/A   Clear
6:55 PM 55.4 °F 44.6 °F 67% 30.21 in - North 6.9 mph - N/A   Clear
7:00 PM 55 °F 44 °F 58% 30.24 in 12 mi North 6.9 mph - -  
7:55 PM 53.6 °F 44.6 °F 72% 30.21 in - North 5.8 mph - N/A   Clear
8:55 PM 53.6 °F 42.8 °F 67% 30.24 in - NE 9.2 mph - N/A   Clear
9:55 PM 53.6 °F 44.6 °F 72% 30.27 in - NNE 8.1 mph - N/A   Clear
10:00 PM 53 °F 44 °F 64% 30.30 in 9 mi NNE 8.1 mph - -  
10:55 PM 51.8 °F 42.8 °F 71% 30.27 in - NE 8.1 mph - N/A   Clear